Flag for Japan Weather past 2 weeks in Hamamatsu, Japan

Now
84 °F

Warm.


Feels Like: 92 °F
Forecast: 77 / 89 °F
Wind: 16 mph from West

Location: Omaezaki

Current Time: Jul 28, 2015 at 6:09:48 PM

Latest Report: Jul 28, 2015 at 5:00 PM


Visibility: 11 mi

Pressure: 29.67 "Hg

Humidity: 76%

Dew point: 76 °F

Location of HamamatsuLocation

Historic Weather in Hamamatsu — Graph

°F

Hamamatsu temperature yesterday

Maximum temperature yesterday: 84 °F (at 1:00 PM)
Minimum temperature yesterday: 76 °F (at 2:00 AM)
Average temperature yesterday: 80 °F

Past Weeks' High & Low Weather Summary

 TemperatureHumidityPressure
High89 °F (Jul 28, 1:00 PM)100% (Jul 14, 3:00 AM)30.02 "Hg (Jul 14, 3:00 AM)
Low74 °F (Jul 22, 4:00 AM)61% (Jul 15, 1:00 PM)29.63 "Hg (Jul 16, 4:00 AM)
Average79 °F89%29.85 "Hg
* Reported Jul 13 3:00 PM — Jul 28 3:00 PM, Hamamatsu, Weather by CustomWeather, © 2015

Note: Actual official high and low records may vary slightly from our data, if they occured in-between our weather recording intervals... More about our weather records

Advertising

Hamamatsu weather history for previous 24 hours

 ConditionsComfort  
Time TempWeatherWind HumidityBarometerVisibility
3:00 PM
Tue, Jul 28
88 °FHot.9 mph66%29.68 "Hg10 mi
2:00 PM89 °FHot.13 mph63%29.68 "Hg11 mi
1:00 PM89 °FHot.10 mph63%29.69 "Hg12 mi
12:00 PM86 °FWarm.6 mph68%29.70 "Hg11 mi
11:00 AM85 °FWarm.5 mph75%29.70 "Hg9 mi
10:00 AM83 °FWarm.6 mph78%29.72 "Hg9 mi
9:00 AM82 °FFog.3 mph84%29.72 "Hg5 mi
8:00 AM82 °FWarm.2 mph84%29.72 "Hg6 mi
7:00 AM79 °FFog.2 mph93%29.72 "Hg3 mi
5:00 AM76 °FFog.6 mph99%29.70 "Hg1 mi
4:00 AM77 °FFog.6 mph98%29.70 "Hg3 mi
3:00 AM77 °FFog.5 mph99%29.70 "Hg2 mi
2:00 AM77 °FFog.3 mph99%29.70 "Hg2 mi
1:00 AM78 °FFog.3 mph98%29.71 "Hg2 mi
12:00 AM78 °FFog.3 mph97%29.73 "Hg3 mi
11:00 PM
Mon, Jul 27
78 °FFog.2 mph96%29.75 "Hg3 mi
10:00 PM78 °FFog.3 mph95%29.75 "Hg2 mi
9:00 PM78 °FFog.5 mph95%29.76 "Hg5 mi
8:00 PM79 °FFog.12 mph95%29.76 "Hg4 mi
7:00 PM79 °FFog.13 mph94%29.75 "Hg4 mi
6:00 PM80 °FFog.9 mph90%29.75 "Hg5 mi
Weather by CustomWeather, © 2015

See weather overviewHow to use our weather pages